Location: Unspecified
(0.0000°N, 0.0000°E)
Time: 16:57:58
(UTC+01:00)

Envisat - Pass Details

Date: 23 October 2021
Orbit: 764 x 766 km, 98.2° (Epoch: 29 November)

Event Time Altitude Azimuth Distance (km) Brightness Sun altitude
Rises 07:07:07 0° 359° (N) 3,212 6.1 -9.1°
Reaches altitude 10° 07:09:31 10° 352° (N) 2,289 5.3 -8.5°
Maximum altitude 07:14:15 41° 282° (WNW) 1,087 3.4 -7.4°
Drops below altitude 10° 07:19:00 10° 212° (SSW) 2,298 5.3 -6.2°
Sets 07:21:25 0° 205° (SSW) 3,226 6.1 -5.6°
